Flag for Canada Weather past 2 weeks in Kamloops, British Columbia, Canada

Now
66 °F

Sunny.


Feels Like: 66 °F
Forecast: 49 / 74 °F
Wind: 6 mph from Southeast

Location: Kamloops

Current Time: Sep 20, 2014 at 1:17:28 PM

Latest Report: Sep 20, 2014 at 12:00 PM


Visibility: 40 mi

Pressure: 30.26 "Hg

Humidity: 49%

Dew point: 46 °F

Location of KamloopsLocation

Historic Weather in Kamloops — Graph

°F

Kamloops temperature yesterday

Maximum temperature yesterday: 81 °F (at 3:00 PM)
Minimum temperature yesterday: 55 °F (at 6:00 AM)
Average temperature yesterday: 66 °F

Past Weeks' High & Low Weather Summary

 TemperatureHumidityPressure
High84 °F (Sep 6, 5:00 PM)94% (Sep 18, 1:00 AM)30.57 "Hg (Sep 18, 1:00 AM)
Low36 °F (Sep 11, 5:00 AM)17% (Sep 14, 4:00 PM)29.63 "Hg (Sep 7, 7:00 PM)
Average61 °F52%30.02 "Hg
* Reported Sep 5 12:00 Noon — Sep 20 12:00 Noon, Kamloops, Weather by CustomWeather, © 2014

Note: Actual official high and low records may vary slightly from our data, if they occured in-between our weather recording intervals... More about our weather records

Advertising

Kamloops weather history for previous 24 hours

 ConditionsComfort  
Time TempWeatherWind HumidityBarometerVisibility
12:00 PM
Sep 20
66 °FSunny.6 mph49%30.26 "Hg40 mi
11:00 AM63 °FSunny.3 mph56%30.28 "Hg40 mi
10:00 AM59 °FSunny.2 mph55%30.29 "Hg40 mi
6:00 AM50 °FPassing clouds.2 mph82%30.23 "Hg40 mi
5:00 AM52 °FClear.No wind77%30.20 "Hg40 mi
4:00 AM54 °FClear.No wind72%30.18 "Hg40 mi
3:00 AM52 °FClear.5 mph77%30.16 "Hg40 mi
2:00 AM52 °FClear.3 mph82%30.15 "Hg40 mi
1:00 AM57 °FClear.2 mph63%30.13 "Hg40 mi
12:00 AM57 °FPassing clouds.3 mph67%30.11 "Hg40 mi
11:00 PM
Sep 19
64 °FPassing clouds.No wind49%30.07 "Hg40 mi
10:00 PM63 °FPassing clouds.6 mph56%30.05 "Hg40 mi
9:00 PM66 °FPassing clouds.6 mph49%30.01 "Hg40 mi
8:00 PM70 °FPartly sunny.3 mph43%29.98 "Hg40 mi
7:00 PM75 °FPartly sunny.17 mph34%29.93 "Hg40 mi
6:00 PM77 °FPartly sunny.14 mph32%29.91 "Hg40 mi
5:00 PM77 °FPartly sunny.3 mph36%29.90 "Hg40 mi
4:00 PM81 °FPartly sunny.6 mph30%29.89 "Hg40 mi
3:00 PM81 °FPartly sunny.3 mph28%29.89 "Hg40 mi
2:00 PM77 °FScattered clouds.5 mph36%29.89 "Hg40 mi
1:00 PM75 °FScattered clouds.5 mph41%29.90 "Hg40 mi
Weather by CustomWeather, © 2014

See weather overviewHow to use our weather pages